KE9LZ-9 Weather Reports


time (UTC)temp
C
wind
direction
speed
KPH
gust
KPH
rain 1hr
cm
rain 24hr
cm
rain mn
cm
humidity
%
barometer
mb
20260901140004 23 335 1.6 3.2 0.00 0.00 0.00 96 1014.7
20260901135004 23 353 0.0 1.6 0.00 0.00 0.00 97 1014.7
20260901133003 21 317 0.0 3.2 0.00 0.00 0.00 99 1014.8
20260901132004 20 314 3.2 4.8 0.00 0.00 0.00 99 1014.9
20260901131004 20 352 0.0 3.2 0.00 0.00 0.00 99 1014.8
20260901130004 21 350 0.0 1.6 0.00 0.00 0.00 99 1014.9
20260901125004 20 8 0.0 1.6 0.00 0.00 0.00 99 1014.7
20260901123004 17 327 1.6 3.2 0.00 0.00 0.00 99 1014.5
20260901122004 17 334 1.6 3.2 0.00 0.00 0.00 99 1014.5
20260901120003 16 308 1.6 3.2 0.00 0.00 0.00 99 1014.3
20260901115003 16 336 1.6 3.2 0.00 0.00 0.00 99 1014.1
20260901114004 16 347 0.0 1.6 0.00 0.00 0.00 99 1014.0
20260901113004 16 14 0.0 1.6 0.00 0.00 0.00 99 1013.7
20260901112003 16 354 0.0 3.2 0.00 0.00 0.00 99 1013.9
20260901110003 17 358 1.6 3.2 0.00 0.00 0.00 99 1013.6
20260901105004 17 340 1.6 3.2 0.00 0.00 0.00 99 1013.6
20260901104003 17 324 1.6 1.6 0.00 0.00 0.00 99 1013.5
20260901103004 17 6 1.6 1.6 0.00 0.00 0.00 99 1013.4
20260901101004 17 41 1.6 1.6 0.00 0.00 0.00 99 1013.4
20260901100004 17 35 1.6 1.6 0.00 0.00 0.00 99 1013.5
20260901095004 18 23 1.6 3.2 0.00 0.00 0.00 99 1013.4
20260901094004 18 16 0.0 1.6 0.00 0.00 0.00 99 1013.6
20260901093004 18 29 0.0 1.6 0.00 0.15 0.00 99 1013.4
20260901091004 18 37 0.0 0.0 0.00 0.15 0.00 99 1013.4
20260901090004 18 55 0.0 1.6 0.00 0.15 0.00 99 1013.4
20260901085004 18 349 0.0 1.6 0.00 0.15 0.00 99 1013.4
20260901084004 18 348 0.0 1.6 0.00 0.28 0.00 99 1013.2
20260901083003 18 29 0.0 1.6 0.00 0.48 0.00 99 1013.3
20260901082004 18 33 0.0 1.6 0.00 0.48 0.00 99 1013.3
20260901080003 18 336 0.0 1.6 0.00 0.48 0.00 99 1013.3
20260901075003 18 44 1.6 3.2 0.00 0.48 0.00 99 1013.3
20260901074004 18 18 1.6 1.6 0.00 0.48 0.00 99 1013.3
20260901073004 18 19 0.0 1.6 0.00 0.48 0.00 99 1013.2
20260901071004 18 2 0.0 1.6 0.00 0.48 0.00 99 1013.0
20260901070003 19 16 0.0 1.6 0.00 0.48 0.00 99 1012.8
20260901065004 19 14 0.0 1.6 0.00 0.48 0.00 99 1012.9
20260901064004 19 336 0.0 1.6 0.00 0.48 0.00 99 1013.0
20260901062005 19 11 0.0 1.6 0.00 0.48 0.00 99 1013.1
20260901061004 19 29 1.6 1.6 0.00 0.48 0.00 99 1013.1
20260901060004 20 13 0.0 0.0 0.00 0.48 0.00 99 1013.0
20260901055003 20 305 0.0 1.6 0.00 0.48 0.00 99 1013.0
20260901054004 20 3 0.0 0.0 0.00 0.48 0.00 99 1012.9
20260901053004 20 322 0.0 0.0 0.00 0.48 0.00 99 1013.0
20260901052004 20 345 0.0 1.6 0.00 0.48 0.00 99 1013.1
20260901050004 20 6 0.0 1.6 0.00 0.48 0.00 99 1013.1
20260901045004 20 13 1.6 1.6 0.00 0.51 0.48 99 1012.9
20260901044004 20 343 0.0 1.6 0.00 0.51 0.48 99 1013.0
20260901041004 21 48 1.6 1.6 0.00 0.51 0.48 99 1012.9
20260901040004 21 341 0.0 1.6 0.00 0.51 0.48 99 1012.8
20260901034004 21 28 0.0 1.6 0.00 0.51 0.48 99 1012.7
20260901033004 21 1 0.0 1.6 0.00 0.51 0.48 99 1012.7
20260901030004 22 23 0.0 1.6 0.00 0.51 0.48 99 1013.0
20260901025004 22 25 0.0 1.6 0.00 0.51 0.48 99 1013.0
20260901023003 22 325 0.0 0.0 0.00 0.51 0.48 99 1013.1
20260901022004 22 50 0.0 1.6 0.00 0.51 0.48 99 1013.1
20260901021004 22 33 0.0 0.0 0.00 0.51 0.48 99 1013.0
20260901020003 22 309 0.0 0.0 0.00 0.51 0.48 99 1012.9
20260901015004 22 309 0.0 0.0 0.00 0.51 0.48 99 1013.0
20260901014003 22 309 0.0 0.0 0.00 0.51 0.48 99 1013.0
20260901013004 22 333 0.0 0.0 0.00 0.51 0.48 99 1012.8
20260901012004 22 333 0.0 0.0 0.00 0.51 0.48 99 1012.5
20260901011004 23 333 0.0 0.0 0.00 0.51 0.48 99 1012.3
20260901010004 23 322 0.0 0.0 0.00 0.51 0.48 99 1012.1
20260901005003 23 347 0.0 1.6 0.00 0.51 0.48 99 1011.9
20260901004004 23 17 0.0 1.6 0.00 0.51 0.48 99 1011.9
20260901002004 24 37 0.0 1.6 0.00 0.51 0.48 98 1011.7
20260901001004 25 25 0.0 0.0 0.00 0.51 0.48 96 1011.8
20260901000004 25 25 0.0 0.0 0.00 0.51 0.48 95 1011.8
20260831235004 26 333 0.0 0.0 0.00 0.51 0.48 93 1011.8
20260831234004 26 333 0.0 1.6 0.00 0.51 0.48 92 1011.7
20260831233004 27 289 0.0 3.2 0.00 0.51 0.48 88 1011.8
20260831232004 27 325 1.6 3.2 0.00 0.51 0.48 88 1011.6
20260831231004 27 8 1.6 3.2 0.00 0.51 0.48 89 1011.7
20260831230004 27 330 1.6 3.2 0.00 0.51 0.48 88 1011.5
20260831225004 27 0 1.6 3.2 0.00 0.51 0.48 86 1011.5
20260831224004 27 43 0.0 4.8 0.00 0.51 0.48 84 1011.4
20260831223004 28 345 1.6 4.8 0.00 0.51 0.48 84 1011.3
20260831221004 27 282 1.6 3.2 0.00 0.51 0.48 88 1011.3
20260831220004 26 327 3.2 4.8 0.00 0.51 0.48 89 1011.5
20260831215004 26 338 1.6 4.8 0.00 0.51 0.48 89 1011.5
20260831214004 26 280 3.2 4.8 0.00 0.51 0.48 88 1011.4
20260831213004 26 317 3.2 4.8 0.00 0.51 0.48 89 1011.1
20260831212004 26 0 1.6 4.8 0.00 0.51 0.48 89 1011.1
20260831211004 26 290 0.0 4.8 0.00 0.51 0.48 88 1011.1
20260831210004 27 0 3.2 4.8 0.00 0.51 0.48 87 1011.0
20260831205003 26 297 1.6 9.7 0.00 0.51 0.48 88 1011.0
20260831202003 26 315 3.2 8.0 0.00 0.51 0.48 87 1010.9
20260831201004 26 291 3.2 4.8 0.00 0.51 0.48 86 1011.0
20260831195003 26 283 3.2 8.0 0.00 0.51 0.48 86 1011.1
20260831194003 26 296 1.6 4.8 0.00 0.51 0.48 86 1011.2
20260831192003 26 318 3.2 8.0 0.00 0.51 0.48 86 1011.2
20260831191004 26 281 1.6 9.7 0.00 0.51 0.48 87 1011.3
20260831190004 26 292 3.2 9.7 0.00 0.51 0.48 86 1011.1
20260831185004 26 277 3.2 11.3 0.00 0.51 0.48 85 1011.4
20260831184004 27 296 1.6 9.7 0.00 0.51 0.48 84 1011.5
20260831183004 26 267 6.4 9.7 0.00 0.51 0.48 86 1011.8
20260831182004 26 301 3.2 12.9 0.00 0.51 0.48 86 1011.7
20260831181004 26 285 4.8 14.5 0.00 0.51 0.48 88 1011.8
20260831174004 26 326 3.2 9.7 0.00 0.51 0.48 87 1011.5
20260831173004 26 158 1.6 9.7 0.00 0.51 0.48 86 1011.7
20260831172004 26 356 1.6 9.7 0.00 0.51 0.48 87 1011.8
20260831171004 25 324 3.2 8.0 0.00 0.51 0.48 89 1011.9
20260831170004 24 319 4.8 8.0 0.00 0.51 0.48 91 1011.9
20260831165004 25 289 4.8 9.7 0.00 0.51 0.48 91 1011.8
20260831164003 24 301 3.2 4.8 0.00 0.51 0.48 91 1011.8
20260831163003 24 287 3.2 4.8 0.00 0.51 0.48 93 1011.9
20260831162004 23 46 1.6 3.2 0.00 0.51 0.48 94 1012.0
20260831161004 23 37 1.6 4.8 0.00 0.51 0.48 95 1011.8
20260831155003 22 354 1.6 4.8 0.00 0.51 0.48 98 1011.9
20260831153004 22 193 0.0 4.8 0.00 0.51 0.48 99 1011.9
20260831152003 21 306 1.6 4.8 0.00 0.51 0.48 99 1012.1
20260831151004 21 58 1.6 9.7 0.00 0.51 0.48 99 1012.1
20260831150004 21 354 1.6 8.0 0.00 0.51 0.48 99 1012.0
20260831145004 21 202 1.6 11.3 0.00 0.51 0.48 99 1012.2
20260831144004 21 313 1.6 8.0 0.00 0.51 0.48 99 1012.3
20260831143004 21 75 3.2 8.0 0.00 0.51 0.48 99 1012.3
20260831142004 20 60 3.2 4.8 0.00 0.51 0.48 99 1012.2